Bullock, NC

5:00 PM EST on February 06, 2016 (GMT -0500)
Henderson-Oxford

Weather History for KHNZ - March, 2014

Change the Weather History Date:

Saturday, March 8, 2014

  Actual Average (KTDF) Record (KTDF)
Temperature  
Mean Temperature 46 °F -  
Max Temperature 65 °F 58 °F 86 °F (1974)
Min Temperature 28 °F 34 °F 14 °F (1986)
Degree Days  
Heating Degree Days 18    
Moisture  
Dew Point 35 °F    
Average Humidity 68    
Maximum Humidity 97    
Minimum Humidity 32    
Precipitation  
Precipitation 0.00 in - - ()
Sea Level Pressure  
Sea Level Pressure 29.99 in    
Wind  
Wind Speed 4 mph (WSW)    
Max Wind Speed 13 mph    
Max Gust Speed 18 mph    
Visibility 10 miles    
Events      
Averages and records for this station are not official NWS values.
T = Trace of Precipitation, MM = Missing Value Source: NWS Daily Summary

Daily Weather History Graph

Daily Weather History Graph

Search for Another Location

Airport or City:

Trip Planner

Search our weather history database for the weather conditions in past years. The results will help you decide how hot, cold, wet, or windy it might be!

Date:

Astronomy

Mar. 08, 2014 Rise Set
Actual Time 6:34 AM EST 6:15 PM EST
Civil Twilight 6:09 AM EST 6:41 PM EST
Nautical Twilight 5:39 AM EST 7:10 PM EST
Astronomical Twilight 5:09 AM EST 7:40 PM EST
Moon 11:25 AM EST (3/8) 1:01 AM EST (3/8)
Length of Visible Light 12h 31m
Length of Day
11h 40m
First Quarter, 51% of the Moon is Illuminated
Mar 8
First Quarter
Mar 16
Full
Mar 23
Last Quarter
Mar 30
New
Apr 7
First Quarter

Hourly Weather History & Observations

Time (EST) Temp. Windchill Dew Point Humidity Pressure Visibility Wind Dir Wind Speed Gust Speed Precip Events Conditions
12:15 AM 34.3 °F 29.2 °F 30.2 °F 85% 29.95 in 10.0 mi NNW 5.8 mph - N/A   Clear
12:35 AM 34.0 °F 29.8 °F 30.2 °F 86% 29.95 in 10.0 mi NNW 4.6 mph - N/A   Clear
12:55 AM 33.8 °F 27.7 °F 30.0 °F 86% 29.96 in 10.0 mi NNW 6.9 mph - N/A   Clear
1:15 AM 33.3 °F 27.9 °F 29.8 °F 87% 29.96 in 10.0 mi North 5.8 mph - N/A   Clear
1:35 AM 33.1 °F 30.0 °F 29.7 °F 87% 29.96 in 10.0 mi NNW 3.5 mph - N/A   Clear
1:55 AM 33.3 °F - 29.7 °F 87% 29.96 in 10.0 mi Calm Calm - N/A   Clear
2:15 AM 33.3 °F - 29.3 °F 85% 29.97 in 10.0 mi Calm Calm - N/A   Clear
2:40 AM 32.4 °F - 29.8 °F 90% 29.97 in 10.0 mi Calm Calm - N/A   Clear
2:55 AM 32.4 °F - 29.3 °F 88% 29.97 in 10.0 mi Calm Calm - N/A   Clear
3:15 AM 32.0 °F - 29.1 °F 89% 29.98 in 10.0 mi Calm Calm - N/A   Clear
3:35 AM 32.2 °F 28.9 °F 28.8 °F 87% 29.99 in 10.0 mi West 3.5 mph - N/A   Clear
3:55 AM 32.0 °F - 29.1 °F 89% 29.99 in 10.0 mi Calm Calm - N/A   Clear
4:15 AM 32.0 °F 28.7 °F 28.8 °F 88% 30.00 in 10.0 mi West 3.5 mph - N/A   Clear
4:35 AM 32.0 °F 28.7 °F 29.3 °F 90% 29.99 in 10.0 mi West 3.5 mph - N/A   Clear
4:55 AM 32.0 °F 28.7 °F 29.1 °F 89% 29.99 in 10.0 mi West 3.5 mph - N/A   Clear
5:15 AM 31.3 °F - 28.8 °F 90% 30.00 in 10.0 mi Calm Calm - N/A   Clear
5:35 AM 30.9 °F - 28.8 °F 92% 30.00 in 10.0 mi Calm Calm - N/A   Clear
5:55 AM 30.6 °F - 29.1 °F 94% 30.00 in 7.0 mi Calm Calm - N/A   Clear
6:15 AM 28.9 °F - 27.7 °F 95% 30.00 in 4.0 mi Calm Calm - N/A   Clear
6:35 AM 30.2 °F - 29.1 °F 96% 30.00 in 7.0 mi Calm Calm - N/A   Clear
6:55 AM 28.4 °F 24.6 °F 27.3 °F 96% 30.02 in 5.0 mi West 3.5 mph - N/A   Clear
7:15 AM 29.7 °F - 28.8 °F 96% 30.02 in 5.0 mi Calm Calm - N/A   Clear
7:35 AM 31.3 °F - 30.2 °F 96% 30.03 in 5.0 mi Calm Calm - N/A   Clear
7:55 AM 32.4 °F 27.9 °F 31.6 °F 97% 30.05 in 7.0 mi SW 4.6 mph - N/A   Clear
8:15 AM 33.4 °F - 32.0 °F 94% 30.05 in 10.0 mi Calm Calm - N/A   Clear
8:35 AM 35.1 °F 32.2 °F 32.0 °F 89% 30.05 in 10.0 mi SSW 3.5 mph - N/A   Clear
8:55 AM 37.8 °F 35.3 °F 33.4 °F 84% 30.05 in 10.0 mi SW 3.5 mph - N/A   Clear
9:15 AM 40.3 °F 37.1 °F 34.9 °F 81% 30.05 in 10.0 mi SW 4.6 mph - N/A   Clear
9:35 AM 42.1 °F 38.4 °F 35.6 °F 78% 30.05 in 10.0 mi SSW 5.8 mph - N/A   Clear
9:55 AM 44.4 °F 40.5 °F 37.9 °F 78% 30.05 in 10.0 mi SW 6.9 mph - N/A   Clear
10:15 AM 46.6 °F - 38.8 °F 74% 30.05 in 10.0 mi SW 6.9 mph - N/A   Clear
10:35 AM 48.6 °F - 39.7 °F 72% 30.05 in 10.0 mi SW 6.9 mph - N/A   Clear
10:55 AM 51.6 °F - 41.0 °F 67% 30.05 in 10.0 mi SW 5.8 mph - N/A   Clear
11:15 AM 52.9 °F - 40.5 °F 63% 30.04 in 10.0 mi SW 6.9 mph - N/A   Clear
11:35 AM 54.9 °F - 40.6 °F 59% 30.03 in 10.0 mi WSW 6.9 mph - N/A   Clear
11:55 AM 57.4 °F - 40.5 °F 53% 30.02 in 10.0 mi SW 5.8 mph - N/A   Clear
12:15 PM 59.4 °F - 40.5 °F 50% 30.02 in 10.0 mi WSW 6.9 mph - N/A   Clear
12:35 PM 60.3 °F - 38.8 °F 45% 30.01 in 10.0 mi WSW 10.4 mph - N/A   Clear
12:55 PM 61.2 °F - 38.5 °F 43% 30.00 in 10.0 mi West 6.9 mph - N/A   Clear
1:15 PM 61.9 °F - 38.5 °F 42% 29.99 in 10.0 mi West 6.9 mph - N/A   Clear
1:35 PM 62.6 °F - 39.0 °F 42% 29.99 in 10.0 mi WSW 12.7 mph - N/A   Clear
1:55 PM 63.0 °F - 37.2 °F 38% 29.98 in 10.0 mi West 9.2 mph - N/A   Clear
2:15 PM 63.3 °F - 37.8 °F 39% 29.97 in 10.0 mi SW 8.1 mph - N/A   Clear
2:35 PM 64.6 °F - 38.1 °F 38% 29.96 in 10.0 mi SW 8.1 mph - N/A   Clear
2:55 PM 64.6 °F - 37.4 °F 37% 29.96 in 10.0 mi West 8.1 mph - N/A   Clear
3:15 PM 65.7 °F - 38.5 °F 37% 29.96 in 10.0 mi SW 9.2 mph - N/A   Clear
3:35 PM 65.3 °F - 36.7 °F 35% 29.96 in 10.0 mi SW 11.5 mph - N/A   Clear
3:55 PM 65.3 °F - 37.9 °F 36% 29.95 in 10.0 mi WSW 8.1 mph - N/A   Clear
4:15 PM 65.1 °F - 36.9 °F 35% 29.95 in 10.0 mi WSW 10.4 mph - N/A   Clear
4:35 PM 64.6 °F - 34.2 °F 32% 29.95 in 10.0 mi SW 9.2 mph 18.4 mph N/A   Clear
4:55 PM 64.8 °F - 34.9 °F 33% 29.95 in 10.0 mi West 8.1 mph - N/A   Clear
5:15 PM 63.9 °F - 35.1 °F 34% 29.96 in 10.0 mi WSW 6.9 mph - N/A   Clear
5:35 PM 63.0 °F - 35.1 °F 35% 29.95 in 10.0 mi WSW 5.8 mph - N/A   Clear
5:55 PM 61.7 °F - 35.8 °F 38% 29.96 in 10.0 mi West 4.6 mph - N/A   Clear
6:15 PM 60.1 °F - 37.2 °F 43% 29.96 in 10.0 mi Calm Calm - N/A   Clear
6:35 PM 56.7 °F - 39.4 °F 52% 29.97 in 10.0 mi Calm Calm - N/A   Clear
6:55 PM 53.6 °F - 40.1 °F 60% 29.97 in 10.0 mi SSW 3.5 mph - N/A   Clear
7:15 PM 54.5 °F - 38.8 °F 56% 29.98 in 10.0 mi SSW 4.6 mph - N/A   Clear
7:35 PM 53.8 °F - 38.8 °F 57% 29.98 in 10.0 mi Calm Calm - N/A   Clear
7:55 PM 48.9 °F - 39.9 °F 71% 29.98 in 10.0 mi SW 4.6 mph - N/A   Clear
8:15 PM 47.5 °F - 39.6 °F 74% 29.98 in 10.0 mi SW 6.9 mph - N/A   Clear
8:35 PM 49.3 °F - 39.2 °F 68% 29.98 in 10.0 mi SSW 6.9 mph - N/A   Clear
8:55 PM 51.1 °F - 38.5 °F 62% 29.98 in 10.0 mi SSW 6.9 mph - N/A   Clear
9:15 PM 49.6 °F - 38.3 °F 65% 29.97 in 10.0 mi SW 6.9 mph - N/A   Clear
9:35 PM 49.3 °F - 37.9 °F 65% 29.97 in 10.0 mi SW 6.9 mph - N/A   Clear
9:55 PM 49.3 °F - 37.9 °F 65% 29.98 in 10.0 mi SW 6.9 mph - N/A   Clear
10:15 PM 48.4 °F - 38.1 °F 68% 29.97 in 10.0 mi SSW 8.1 mph - N/A   Clear
10:35 PM 48.2 °F - 38.3 °F 69% 29.97 in 10.0 mi SW 6.9 mph - N/A   Clear
10:55 PM 47.5 °F - 37.9 °F 69% 29.97 in 10.0 mi SW 6.9 mph - N/A   Clear
11:15 PM 47.3 °F - 37.9 °F 70% 29.97 in 10.0 mi SW 4.6 mph - N/A   Clear
11:35 PM 47.3 °F - 37.8 °F 69% 29.97 in 10.0 mi SW 5.8 mph - N/A   Clear
11:55 PM 46.4 °F 44.3 °F 37.8 °F 72% 29.97 in 10.0 mi SW 4.6 mph - N/A   Clear